GW5741 Weather Reports


time (UTC)temp
C
wind
direction
speed
KPH
gust
KPH
rain 1hr
cm
rain 24hr
cm
rain mn
cm
humidity
%
barometer
mb
20260905202949 26 56 1.6 3.2 0.00 0.00 0.00 51 1010.0
20260905202449 26 137 1.6 3.2 0.00 0.00 0.00 54 1009.9
20260905201949 26 39 1.6 4.8 0.00 0.00 0.00 52 1010.0
20260905201449 25 121 1.6 3.2 0.00 0.00 0.00 55 1010.1
20260905200949 26 55 3.2 4.8 0.00 0.00 0.00 55 1010.1
20260905200449 26 54 3.2 8.0 0.00 0.00 0.00 53 1010.1
20260905195949 26 81 3.2 4.8 0.00 0.00 0.00 52 1010.1
20260905195449 26 54 1.6 4.8 0.00 0.00 0.00 53 1010.0
20260905194949 26 62 1.6 3.2 0.00 0.00 0.00 51 1009.9
20260905194449 26 24 3.2 3.2 0.00 0.00 0.00 53 1010.0
20260905193949 26 44 3.2 3.2 0.00 0.00 0.00 54 1010.0
20260905193449 26 10 1.6 3.2 0.00 0.00 0.00 55 1010.1
20260905192949 26 64 1.6 3.2 0.00 0.00 0.00 53 1010.1
20260905192449 26 64 3.2 4.8 0.00 0.00 0.00 54 1010.1
20260905191949 26 50 1.6 4.8 0.00 0.00 0.00 52 1010.1
20260905191449 26 56 4.8 6.4 0.00 0.00 0.00 53 1010.1
20260905190950 26 112 0.0 1.6 0.00 0.00 0.00 55 1010.0
20260905190449 26 63 3.2 4.8 0.00 0.00 0.00 52 1010.1
20260905185949 25 21 0.0 1.6 0.00 0.00 0.00 53 1010.1
20260905185449 25 37 1.6 4.8 0.00 0.00 0.00 55 1010.2
20260905184949 26 59 3.2 6.4 0.00 0.00 0.00 52 1010.1
20260905184449 26 52 1.6 4.8 0.00 0.00 0.00 53 1010.2
20260905183949 25 52 3.2 4.8 0.00 0.00 0.00 54 1010.2
20260905183449 25 50 3.2 6.4 0.00 0.00 0.00 55 1010.2
20260905182949 25 76 0.0 1.6 0.00 0.00 0.00 56 1010.3
20260905182451 25 65 1.6 4.8 0.00 0.00 0.00 55 1010.3
20260905181949 25 68 3.2 6.4 0.00 0.00 0.00 56 1010.2
20260905181450 25 31 1.6 4.8 0.00 0.00 0.00 55 1010.4
20260905180949 25 83 3.2 6.4 0.00 0.00 0.00 56 1010.4
20260905180449 25 56 1.6 3.2 0.00 0.00 0.00 57 1010.5
20260905175949 25 40 1.6 3.2 0.00 0.00 0.00 57 1010.5
20260905175449 24 33 1.6 4.8 0.00 0.00 0.00 57 1010.5
20260905174950 24 82 1.6 4.8 0.00 0.00 0.00 57 1010.5
20260905174449 25 39 1.6 4.8 0.00 0.00 0.00 57 1010.6
20260905173950 25 43 1.6 4.8 0.00 0.00 0.00 55 1010.6
20260905173449 25 46 3.2 4.8 0.00 0.00 0.00 54 1010.6
20260905172949 25 81 1.6 3.2 0.00 0.00 0.00 56 1010.7
20260905172449 26 55 1.6 3.2 0.00 0.00 0.00 55 1010.7
20260905171949 26 76 1.6 3.2 0.00 0.00 0.00 53 1010.6
20260905171450 25 22 0.0 3.2 0.00 0.00 0.00 54 1010.7
20260905170949 25 85 1.6 4.8 0.00 0.00 0.00 58 1010.7
20260905170449 25 65 1.6 4.8 0.00 0.00 0.00 58 1010.7
20260905165950 25 85 0.0 3.2 0.00 0.00 0.00 58 1010.7
20260905165449 25 62 3.2 4.8 0.00 0.00 0.00 57 1010.7
20260905164950 25 65 3.2 3.2 0.00 0.00 0.00 58 1010.8
20260905164449 25 107 0.0 3.2 0.00 0.00 0.00 57 1010.8
20260905163949 24 38 1.6 3.2 0.00 0.00 0.00 58 1010.7
20260905163449 25 46 3.2 8.0 0.00 0.00 0.00 57 1010.8
20260905162949 25 51 3.2 6.4 0.00 0.00 0.00 57 1010.7
20260905162450 25 77 3.2 4.8 0.00 0.00 0.00 58 1010.7
20260905161949 24 98 1.6 3.2 0.00 0.00 0.00 57 1010.7
20260905161450 24 52 3.2 6.4 0.00 0.00 0.00 59 1010.7
20260905160949 24 94 1.6 4.8 0.00 0.00 0.00 60 1010.7
20260905160449 23 62 3.2 4.8 0.00 0.00 0.00 62 1010.7
20260905155949 23 73 1.6 4.8 0.00 0.00 0.00 64 1010.8
20260905155449 24 54 3.2 8.0 0.00 0.00 0.00 60 1010.8
20260905154950 24 54 3.2 4.8 0.00 0.00 0.00 61 1010.8
20260905154449 24 66 3.2 4.8 0.00 0.00 0.00 60 1010.7
20260905153950 24 63 3.2 6.4 0.00 0.00 0.00 60 1010.7
20260905153449 24 64 1.6 4.8 0.00 0.00 0.00 60 1010.6
20260905152949 24 61 3.2 4.8 0.00 0.00 0.00 59 1010.7
20260905152449 24 84 3.2 6.4 0.00 0.00 0.00 60 1010.8
20260905151949 24 4 1.6 6.4 0.00 0.00 0.00 59 1010.8
20260905151449 23 58 3.2 6.4 0.00 0.00 0.00 61 1010.8
20260905150949 23 79 1.6 3.2 0.00 0.00 0.00 62 1010.8
20260905150449 23 15 1.6 4.8 0.00 0.00 0.00 62 1010.8
20260905145949 23 73 3.2 6.4 0.00 0.00 0.00 65 1010.9
20260905145449 22 35 1.6 3.2 0.00 0.00 0.00 66 1010.8
20260905144951 22 67 1.6 3.2 0.00 0.00 0.00 65 1010.7
20260905144449 22 89 3.2 6.4 0.00 0.00 0.00 65 1010.9
20260905143949 22 34 0.0 1.6 0.00 0.00 0.00 68 1010.9
20260905143449 22 74 1.6 3.2 0.00 0.00 0.00 69 1010.9
20260905142949 22 71 3.2 4.8 0.00 0.00 0.00 70 1010.9
20260905142449 22 84 3.2 3.2 0.00 0.00 0.00 69 1010.8
20260905141951 22 71 3.2 3.2 0.00 0.00 0.00 70 1010.8
20260905141449 22 48 4.8 6.4 0.00 0.00 0.00 70 1010.8
20260905140949 22 66 1.6 3.2 0.00 0.00 0.00 72 1010.7
20260905140449 21 57 3.2 3.2 0.00 0.00 0.00 72 1010.8
20260905135949 21 83 1.6 1.6 0.00 0.00 0.00 72 1010.8
20260905135449 21 81 1.6 3.2 0.00 0.00 0.00 72 1010.8
20260905134949 21 84 3.2 4.8 0.00 0.00 0.00 73 1010.8
20260905134450 21 89 0.0 1.6 0.00 0.00 0.00 75 1010.9
20260905133949 21 91 0.0 0.0 0.00 0.00 0.00 75 1010.9
20260905133451 21 65 1.6 3.2 0.00 0.00 0.00 75 1010.9
20260905132950 20 91 0.0 1.6 0.00 0.00 0.00 77 1011.0
20260905132450 21 94 0.0 1.6 0.00 0.00 0.00 76 1011.0
20260905131949 21 55 3.2 3.2 0.00 0.00 0.00 75 1011.0
20260905131449 21 360 1.6 1.6 0.00 0.00 0.00 76 1011.0
20260905130949 20 67 0.0 0.0 0.00 0.00 0.00 76 1011.2
20260905130449 20 63 1.6 3.2 0.00 0.00 0.00 76 1011.2
20260905125949 20 67 3.2 3.2 0.00 0.00 0.00 76 1011.2
20260905125028 20 69 1.6 3.2 0.00 0.00 0.00 77 1011.0
20260905124449 20 86 0.0 3.2 0.00 0.00 0.00 78 1011.0
20260905123949 20 62 1.6 4.8 0.00 0.00 0.00 78 1011.2
20260905123449 20 59 3.2 4.8 0.00 0.00 0.00 78 1011.2
20260905122949 20 48 1.6 4.8 0.00 0.00 0.00 78 1011.3
20260905122450 20 50 3.2 4.8 0.00 0.00 0.00 78 1011.3
20260905121950 20 47 1.6 3.2 0.00 0.00 0.00 77 1011.3
20260905121449 20 65 3.2 6.4 0.00 0.00 0.00 78 1011.3
20260905120949 19 40 3.2 4.8 0.00 0.00 0.00 78 1011.3
20260905120450 19 58 1.6 3.2 0.00 0.00 0.00 79 1011.2
20260905115949 19 30 1.6 6.4 0.00 0.00 0.00 79 1011.2
20260905115449 18 80 1.6 4.8 0.00 0.00 0.00 80 1011.2
20260905114949 18 55 1.6 4.8 0.00 0.00 0.00 81 1011.2
20260905114449 18 64 1.6 3.2 0.00 0.00 0.00 81 1011.0
20260905113949 18 76 0.0 3.2 0.00 0.00 0.00 83 1010.9
20260905113449 17 125 1.6 3.2 0.00 0.00 0.00 84 1010.9
20260905112949 17 76 3.2 3.2 0.00 0.00 0.00 85 1010.8
20260905112449 17 178 0.0 1.6 0.00 0.00 0.00 86 1010.7
20260905111949 17 65 0.0 0.0 0.00 0.00 0.00 86 1010.7
20260905111451 17 73 0.0 3.2 0.00 0.00 0.00 86 1010.7
20260905110949 17 57 1.6 3.2 0.00 0.00 0.00 86 1010.6
20260905110450 17 360 0.0 0.0 0.00 0.00 0.00 86 1010.5
20260905105949 17 84 0.0 1.6 0.00 0.00 0.00 87 1010.4
20260905105450 17 77 0.0 3.2 0.00 0.00 0.00 87 1010.4
20260905104950 16 59 0.0 1.6 0.00 0.00 0.00 88 1010.4
20260905104449 16 360 0.0 0.0 0.00 0.00 0.00 88 1010.3
20260905103951 16 82 0.0 3.2 0.00 0.00 0.00 88 1010.3
20260905103449 16 91 1.6 3.2 0.00 0.00 0.00 87 1010.3
20260905102949 16 86 0.0 1.6 0.00 0.00 0.00 88 1010.3
20260905102449 16 91 0.0 3.2 0.00 0.00 0.00 88 1010.3
20260905101949 16 360 0.0 0.0 0.00 0.00 0.00 88 1010.2
20260905101450 17 360 0.0 0.0 0.00 0.00 0.00 87 1010.2
20260905100949 17 113 0.0 1.6 0.00 0.00 0.00 86 1010.2
20260905100449 17 360 0.0 0.0 0.00 0.00 0.00 86 1010.1
20260905095950 17 104 0.0 1.6 0.00 0.00 0.00 86 1010.1
20260905095449 17 360 0.0 0.0 0.00 0.00 0.00 85 1010.2
20260905094949 17 360 0.0 0.0 0.00 0.00 0.00 84 1010.1
20260905094449 17 360 0.0 0.0 0.00 0.00 0.00 83 1010.1
20260905093949 17 360 0.0 0.0 0.00 0.00 0.00 83 1010.0
20260905093450 17 360 0.0 0.0 0.00 0.00 0.00 83 1010.0
20260905092949 18 360 0.0 0.0 0.00 0.00 0.00 82 1010.0
20260905092450 18 360 0.0 0.0 0.00 0.00 0.00 81 1010.0
20260905091949 18 123 0.0 1.6 0.00 0.00 0.00 80 1010.0
20260905091449 18 360 0.0 0.0 0.00 0.00 0.00 79 1010.0
20260905090949 18 48 0.0 1.6 0.00 0.00 0.00 79 1010.0
20260905090450 18 113 0.0 3.2 0.00 0.00 0.00 79 1009.9
20260905085950 18 360 0.0 0.0 0.00 0.00 0.00 78 1009.9
20260905085449 18 100 0.0 1.6 0.00 0.00 0.00 77 1010.0
20260905084951 18 360 0.0 0.0 0.00 0.00 0.00 77 1010.0
20260905084450 19 360 0.0 0.0 0.00 0.00 0.00 76 1010.0
20260905083949 19 360 0.0 0.0 0.00 0.00 0.00 76 1010.0
20260905083450 19 72 0.0 1.6 0.00 0.00 0.00 75 1010.0
20260905082949 19 360 0.0 0.0 0.00 0.00 0.00 75 1010.0
20260905082450 19 360 0.0 0.0 0.00 0.00 0.00 74 1010.0
20260905081949 20 360 0.0 0.0 0.00 0.00 0.00 74 1010.0
20260905081450 20 62 1.6 3.2 0.00 0.00 0.00 73 1010.1
20260905080949 20 360 0.0 0.0 0.00 0.00 0.00 73 1010.0
20260905080452 20 98 1.6 3.2 0.00 0.00 0.00 73 1010.0
20260905075949 20 360 0.0 0.0 0.00 0.00 0.00 73 1010.1
20260905075450 20 51 0.0 1.6 0.00 0.00 0.00 71 1010.1
20260905074949 20 72 1.6 3.2 0.00 0.00 0.00 72 1010.0
20260905074449 20 70 1.6 4.8 0.00 0.00 0.00 71 1009.9
20260905073949 20 68 0.0 3.2 0.00 0.00 0.00 71 1010.0
20260905073450 20 67 1.6 3.2 0.00 0.00 0.00 71 1010.0
20260905072949 20 43 1.6 3.2 0.00 0.00 0.00 71 1009.9
20260905072449 20 67 1.6 4.8 0.00 0.00 0.00 70 1009.9
20260905071949 20 78 0.0 3.2 0.00 0.00 0.00 71 1010.0
20260905071449 21 63 1.6 3.2 0.00 0.00 0.00 70 1010.0
20260905070949 21 45 0.0 3.2 0.00 0.00 0.00 70 1010.1
20260905070449 21 68 3.2 6.4 0.00 0.00 0.00 70 1010.1
20260905065949 21 55 3.2 4.8 0.00 0.00 0.00 70 1010.1
20260905065449 21 73 1.6 3.2 0.00 0.00 0.00 70 1010.2
20260905064949 21 54 3.2 4.8 0.00 0.00 0.00 70 1010.2
20260905064449 21 59 1.6 4.8 0.00 0.00 0.00 70 1010.2
20260905063949 21 42 1.6 4.8 0.00 0.00 0.00 70 1010.2
20260905063449 21 56 1.6 4.8 0.00 0.00 0.00 70 1010.2
20260905062949 21 60 1.6 3.2 0.00 0.00 0.00 70 1010.4
20260905062449 21 82 1.6 3.2 0.00 0.00 0.00 70 1010.4
20260905061950 20 43 3.2 4.8 0.00 0.00 0.00 71 1010.4
20260905061449 20 67 1.6 3.2 0.00 0.00 0.00 71 1010.4
20260905060950 20 65 0.0 3.2 0.00 0.00 0.00 72 1010.5
20260905060449 20 61 1.6 3.2 0.00 0.00 0.00 72 1010.5
20260905055949 20 360 0.0 0.0 0.00 0.00 0.00 74 1010.5
20260905055451 20 70 0.0 1.6 0.00 0.00 0.00 74 1010.6
20260905054949 20 73 0.0 1.6 0.00 0.00 0.00 75 1010.6
20260905054449 20 86 0.0 1.6 0.00 0.00 0.00 75 1010.7
20260905053949 20 360 0.0 0.0 0.00 0.00 0.00 75 1010.8
20260905053450 20 360 0.0 0.0 0.00 0.00 0.00 75 1010.8
20260905052949 20 58 0.0 1.6 0.00 0.00 0.00 75 1010.7
20260905052449 20 75 1.6 3.2 0.00 0.00 0.00 77 1010.8
20260905051949 20 66 0.0 3.2 0.00 0.00 0.00 78 1010.7
20260905051449 20 65 1.6 3.2 0.00 0.00 0.00 79 1010.7
20260905050949 20 72 1.6 3.2 0.00 0.00 0.00 80 1010.8
20260905050449 20 73 1.6 3.2 0.00 0.00 0.00 81 1010.9
20260905045949 20 83 1.6 3.2 0.00 0.00 0.00 82 1011.0
20260905045449 20 65 1.6 3.2 0.00 0.00 0.00 82 1011.0
20260905044949 20 69 1.6 3.2 0.00 0.00 0.00 83 1011.2
20260905044449 20 4 0.0 1.6 0.00 0.00 0.00 83 1011.2
20260905043950 20 71 0.0 1.6 0.00 0.00 0.00 84 1011.4
20260905043449 21 71 0.0 3.2 0.00 0.00 0.00 83 1011.3
20260905042949 21 58 0.0 1.6 0.00 0.00 0.00 83 1011.3
20260905042450 20 66 0.0 1.6 0.00 0.00 0.00 83 1011.3
20260905041950 20 84 0.0 1.6 0.00 0.00 0.00 85 1011.3
20260905041449 20 79 0.0 1.6 0.00 0.00 0.00 84 1011.3
20260905040949 20 77 0.0 3.2 0.00 0.00 0.00 86 1011.4
20260905040449 21 76 0.0 3.2 0.00 0.00 0.00 86 1011.3
20260905035949 21 75 0.0 1.6 0.00 0.00 1.52 85 1011.4
20260905035450 21 81 0.0 3.2 0.00 0.00 1.52 85 1011.4
20260905034950 21 81 0.0 1.6 0.00 0.00 1.52 84 1011.4
20260905034449 21 80 0.0 3.2 0.00 0.00 1.52 83 1011.4
20260905033950 21 360 0.0 0.0 0.00 0.00 1.52 83 1011.4
20260905033450 20 78 0.0 3.2 0.00 0.00 1.52 84 1011.4
20260905032949 20 72 0.0 3.2 0.00 0.00 1.52 85 1011.4
20260905032450 20 114 0.0 1.6 0.00 0.00 1.52 87 1011.3
20260905031949 20 360 0.0 0.0 0.00 0.00 1.52 88 1011.4
20260905031449 20 360 0.0 0.0 0.00 0.00 1.52 88 1011.4
20260905030949 20 87 0.0 1.6 0.00 0.00 1.52 89 1011.4
20260905030449 20 360 0.0 0.0 0.00 0.00 1.52 88 1011.3
20260905025950 20 81 0.0 3.2 0.00 0.00 1.52 88 1011.2
20260905025449 20 360 0.0 0.0 0.00 0.00 1.52 87 1011.2
20260905024949 20 360 0.0 0.0 0.00 0.00 1.52 88 1011.2
20260905024453 20 48 0.0 1.6 0.00 0.00 1.52 89 1011.2
20260905023949 20 360 0.0 0.0 0.00 0.00 1.52 90 1011.2
20260905023449 20 360 0.0 0.0 0.00 0.00 1.52 91 1011.2
20260905022949 20 89 0.0 0.0 0.00 0.00 1.52 91 1011.2
20260905022449 20 360 0.0 0.0 0.00 0.00 1.52 91 1011.0
20260905021949 20 360 0.0 0.0 0.00 0.00 1.52 91 1011.0
20260905021449 20 99 0.0 1.6 0.00 0.00 1.52 91 1011.2
20260905020949 20 360 0.0 0.0 0.00 0.00 1.52 92 1011.2
20260905020449 20 95 0.0 1.6 0.00 0.00 1.52 91 1011.2
20260905015949 20 360 0.0 0.0 0.00 0.00 1.52 91 1011.3
20260905015449 20 72 0.0 0.0 0.00 0.00 1.52 90 1011.3
20260905014949 20 88 0.0 1.6 0.00 0.00 1.52 89 1011.2
20260905014449 20 360 0.0 0.0 0.00 0.00 1.52 89 1011.2
20260905013950 21 88 0.0 1.6 0.00 0.00 1.52 89 1011.0
20260905013449 21 99 0.0 1.6 0.00 0.00 1.52 89 1011.0
20260905012949 21 360 0.0 0.0 0.00 0.00 1.52 88 1011.0
20260905012449 21 72 0.0 1.6 0.00 0.00 1.52 88 1011.2
20260905011949 21 360 0.0 0.0 0.00 0.00 1.52 88 1011.2
20260905011450 21 360 0.0 0.0 0.00 0.00 1.52 87 1011.3
20260905010949 21 360 0.0 0.0 0.00 0.00 1.52 87 1011.2
20260905010449 21 78 0.0 1.6 0.00 0.00 1.52 87 1011.3
20260905005949 21 97 0.0 1.6 0.00 0.00 1.52 87 1011.4
20260905005449 21 86 0.0 3.2 0.00 0.00 1.52 86 1011.4
20260905004950 21 88 0.0 1.6 0.00 0.00 1.52 86 1011.2
20260905004449 21 94 0.0 1.6 0.00 0.00 1.52 85 1011.2
20260905003948 22 76 0.0 1.6 0.00 0.00 1.52 85 1011.2
20260905003449 22 360 0.0 0.0 0.00 0.00 1.52 86 1011.2
20260905002949 22 360 0.0 0.0 0.00 0.00 1.52 85 1011.0
20260905002449 22 83 0.0 1.6 0.00 0.00 1.52 85 1010.9
20260905001951 23 72 0.0 1.6 0.00 0.00 1.52 84 1011.0
20260905001449 23 360 0.0 0.0 0.00 0.00 1.52 81 1010.9
20260905000949 23 360 0.0 0.0 0.00 0.00 1.52 79 1010.9
20260905000449 23 360 0.0 0.0 0.00 0.00 1.52 76 1010.9
20260904235949 23 360 0.0 0.0 0.00 0.00 1.52 75 1010.9
20260904235449 24 360 0.0 0.0 0.00 0.00 1.52 73 1010.9
20260904234949 24 360 0.0 0.0 0.00 0.00 1.52 72 1010.8
20260904234449 24 360 0.0 0.0 0.00 0.00 1.52 71 1010.8
20260904233949 25 360 0.0 0.0 0.00 0.00 1.52 69 1010.8
20260904233449 25 82 0.0 1.6 0.00 0.00 1.52 68 1010.7
20260904232949 25 73 0.0 1.6 0.00 0.00 1.52 67 1010.7
20260904232449 25 44 0.0 1.6 0.00 0.00 1.52 67 1010.6
20260904231949 25 113 0.0 1.6 0.00 0.00 1.52 67 1010.6
20260904231449 25 360 0.0 0.0 0.00 0.00 1.52 66 1010.7
20260904230950 25 77 0.0 1.6 0.00 0.00 1.52 67 1010.6
20260904230450 25 360 0.0 0.0 0.00 0.00 1.52 66 1010.6
20260904225950 25 71 0.0 1.6 0.00 0.00 1.52 65 1010.6
20260904225449 26 87 0.0 3.2 0.00 0.00 1.52 64 1010.6
20260904224949 26 84 0.0 1.6 0.00 0.00 1.52 65 1010.6
20260904224449 26 86 0.0 0.0 0.00 0.00 1.52 65 1010.7
20260904223949 26 360 0.0 0.0 0.00 0.00 1.52 63 1010.7
20260904223452 26 124 0.0 3.2 0.00 0.00 1.52 64 1010.7
20260904222949 26 80 0.0 3.2 0.00 0.00 1.52 62 1010.7
20260904222450 26 78 1.6 3.2 0.00 0.00 1.52 61 1010.6
20260904221949 26 51 1.6 3.2 0.00 0.00 1.52 60 1010.6
20260904221450 26 74 0.0 3.2 0.00 0.00 1.52 59 1010.6
20260904220950 27 86 1.6 3.2 0.00 0.00 1.52 58 1010.5
20260904220449 27 360 0.0 0.0 0.00 0.00 1.52 58 1010.4
20260904215950 27 75 1.6 1.6 0.00 0.00 1.52 58 1010.5
20260904215449 27 82 1.6 3.2 0.00 0.00 1.52 57 1010.5
20260904214949 28 360 0.0 0.0 0.00 0.00 1.52 54 1010.5
20260904214450 28 52 1.6 3.2 0.00 0.00 1.52 53 1010.6
20260904213949 28 41 1.6 3.2 0.00 0.00 1.52 51 1010.5
20260904213449 28 78 0.0 1.6 0.00 0.00 1.52 52 1010.5
20260904212949 28 122 0.0 3.2 0.00 0.00 1.52 53 1010.5
20260904212449 28 94 0.0 3.2 0.00 0.00 1.52 49 1010.4
20260904211949 28 74 0.0 0.0 0.00 0.00 1.52 52 1010.4
20260904211449 28 76 1.6 3.2 0.00 0.00 1.52 50 1010.5
20260904210953 28 62 0.0 1.6 0.00 0.00 1.52 52 1010.5
20260904210450 28 98 1.6 3.2 0.00 0.00 1.52 52 1010.5
20260904205950 28 70 1.6 3.2 0.00 0.00 1.52 52 1010.6
20260904205449 28 49 1.6 3.2 0.00 0.00 1.52 51 1010.7
20260904204949 28 360 0.0 0.0 0.00 0.00 1.52 52 1010.7
20260904204450 28 31 1.6 3.2 0.00 0.00 1.52 50 1010.7
20260904203952 29 57 1.6 4.8 0.00 0.00 1.52 50 1010.8
20260904203450 28 81 0.0 1.6 0.00 0.00 1.52 49 1010.8